Location: Igon
(43.1667°N, 0.2333°W)
Time: 12:48:35
(UTC+00:00)

Cosmos 990 Rocket - Pass Details

Date: 29 November 2020
Orbit: 747 x 768 km, 74.0° (Epoch: 24 January)

Event Time Altitude Azimuth Distance (km) Brightness Sun altitude
Rises 05:26:38 0° 209° (SSW) 3,213 7.1 -18.6°
Reaches altitude 10° 05:29:01 10° 212° (SSW) 2,294 6.3 -18.1°
Maximum altitude 05:34:10 61° 293° (WNW) 872 4.0 -17.2°
Drops below altitude 10° 05:39:23 10° 14° (NNE) 2,317 6.5 -16.3°
Sets 05:41:48 0° 18° (NNE) 3,248 7.3 -15.9°
